Location: *
(46.3500°N, 10.9000°E)
Time: 20:34:23
(UTC+00:00)

Vanguard 2 Rocket - Pass Details

Date: 23 April 2021
Orbit: 553 x 3326 km, 32.9° (Epoch: 06 May)

Event Time Altitude Azimuth Distance (km) Brightness Sun altitude
Rises 18:22:02 0° 278° (W) 7,316 13.6 -2.0°
Reaches altitude 10° 18:28:50 10° 266° (W) 6,178 12.4 -3.1°
Maximum altitude 18:41:06 22° 225° (SW) 4,666 10.8 -5.0°
Drops below altitude 10° 18:50:53 10° 183° (S) 4,795 10.3 -6.6°
Sets 18:55:17 0° 168° (SSE) 5,350 10.5 -7.2°
